Kezdőlap
METAR-TAF:

METAR-TAF

Repülőterek :

Tekamah Municipal Airport

Tekamah, Nebraska, Amerikai Egyesült Államok

földrajzi szélesség: 41-46-01N, földrajzi hosszúság: 096-10-40W, magasság: 313 m

Jelenlegi meteorológiai megfigyelések

A jelentés 23 perccel ezelõtt készült, 12:54 UTC
Délkeleti szél 3 kt
Hőmérséklet 24°C
Páratartalom 94%
Légköri nyomás 1017 hPa
Látótávolság: 16.1 km
Derült ég

METAR: KTQE 281254Z AUTO 14003KT 10SM CLR 24/23 A3002 RMK AO2 SLP151 T02440228

Idő: 08:17 (13:17 UTC)


TAF: hiányzik

Meteorológiai megfigyelések és előrejelzések több, mint 4000 repülőtéren (METAR és TAF jelentéseket).

A térképen piros és sárga pontok jelzik az elérhető meteorológiai állomásokat.

Mozgassa az egeret a pont fölött, hogy megjelenjen az állomás neve.

Azután kattintson az időjárási megfigyelések és előrejelzések megtekintéséhez.

A térkép megváltoztatása: kattintson a fekete keresztel jelölt zöld gombra ráközelítéshez, a vonallal jelölt zöld gombra távolításhoz, vagy a zöld nyilakra a szomszédos térképek eléréséhez.


METAR-TAF: